Weather History for Butte, MT

Change the Weather History Date:

Friday, June 14, 2013

  Actual Average Record
Temperature  
Mean Temperature 47 °F 55 °F  
Max Temperature 57 °F 69 °F 90 °F (1918)
Min Temperature 37 °F 41 °F 29 °F (1968)
Degree Days  
Heating Degree Days 18 10  
Month to date heating degree days 141 163  
Since 1 June heating degree days 141 163  
Since 1 July heating degree days 8928 9095  
Cooling Degree Days 0 0  
Month to date cooling degree days 0 0  
Year to date cooling degree days 0 0  
Since 1 June cooling degree days 0 0  
Moisture  
Dew Point 32 °F    
Average Humidity 61    
Maximum Humidity 92    
Minimum Humidity 30    
Precipitation  
Precipitation 0.02 in 0.08 in 1.49 in (1948)
Month to date precipitation 1.10 1.23  
Year to date precipitation 4.41 6.14  
Sea Level Pressure  
Sea Level Pressure 30.09 in    
Wind  
Wind Speed 7 mph (West)    
Max Wind Speed 21 mph    
Max Gust Speed 29 mph    
Visibility 10 miles    
Events Rain    
T = Trace of Precipitation, MM = Missing Value Source: NWS Daily Summary

Daily Weather History Graph

Daily Weather History Graph

Search for Another Location

Airport:

Trip Planner

Search our weather history database for the weather conditions in past years. The results will help you decide how hot, cold, wet, or windy it might be!

Date:

Astronomy

Jun. 14, 2013 Rise Set
Actual Time 5:38 AM MDT 9:22 PM MDT
Civil Twilight 5:00 AM MDT 10:00 PM MDT
Nautical Twilight 4:08 AM MDT 10:52 PM MDT
Astronomical Twilight 2:57 AM MDT 12:03 AM MDT
Moon 11:33 AM MDT (6/14) 12:15 AM MDT (6/14)
Length of Visible Light 17h 00m
Length of Day
15h 43m
Waxing Crescent, 31% of the Moon is Illuminated
Jun 14
Waxing Crescent
Jun 16
First Quarter
Jun 23
Full
Jun 29
Last Quarter
Jul 8
New

Hourly Weather History & Observations

Time (MDT) Temp. Windchill Dew Point Humidity Pressure Visibility Wind Dir Wind Speed Gust Speed Precip Events Conditions
12:53 AM 39.0 °F 34.0 °F 37.0 °F 93% 30.06 in 10.0 mi SSE 6.9 mph - N/A   Clear
1:53 AM 37.0 °F - 35.1 °F 93% 30.03 in 10.0 mi Calm Calm - N/A   Clear
2:53 AM 37.0 °F 34.5 °F 36.0 °F 96% 30.04 in 10.0 mi SE 3.5 mph - N/A   Mostly Cloudy
3:53 AM 37.9 °F - 36.0 °F 93% 30.03 in 10.0 mi Calm Calm - N/A   Overcast
4:53 AM 37.9 °F - 36.0 °F 93% 30.00 in 10.0 mi Calm Calm - N/A   Mostly Cloudy
5:53 AM 37.9 °F 34.4 °F 37.0 °F 97% 30.04 in 10.0 mi SSE 4.6 mph - 0.00 in Rain Light Rain
6:22 AM 39.2 °F - 37.4 °F 93% 30.07 in 10.0 mi Calm Calm - 0.00 in Rain Light Rain
6:53 AM 39.9 °F - 37.0 °F 89% 30.04 in 10.0 mi Calm Calm - 0.01 in   Overcast
7:25 AM 39.2 °F 35.9 °F 35.6 °F 87% 30.09 in 10.0 mi WNW 4.6 mph - 0.00 in Rain Light Rain
7:46 AM 41.0 °F 38.0 °F 35.6 °F 81% 30.10 in 10.0 mi WNW 4.6 mph - 0.00 in   Overcast
7:53 AM 41.0 °F 37.1 °F 35.1 °F 79% 30.07 in 10.0 mi WNW 5.8 mph - 0.00 in   Mostly Cloudy
8:53 AM 43.0 °F 38.8 °F 37.0 °F 80% 30.08 in 10.0 mi NW 6.9 mph - N/A   Scattered Clouds
9:53 AM 48.0 °F - 32.0 °F 54% 30.08 in 10.0 mi NW 12.7 mph 20.7 mph N/A   Scattered Clouds
10:53 AM 46.9 °F - 28.0 °F 48% 30.10 in 10.0 mi WNW 15.0 mph 21.9 mph N/A   Overcast
11:53 AM 48.0 °F - 28.0 °F 46% 30.12 in 10.0 mi NW 12.7 mph 21.9 mph N/A   Overcast
12:53 PM 48.0 °F - 30.9 °F 52% 30.14 in 10.0 mi WNW 12.7 mph 20.7 mph 0.00 in Rain Light Rain
1:53 PM 51.1 °F - 27.0 °F 39% 30.13 in 10.0 mi SW 9.2 mph - 0.00 in   Mostly Cloudy
2:53 PM 52.0 °F - 30.0 °F 43% 30.13 in 10.0 mi West 10.4 mph - N/A   Overcast
3:53 PM 54.0 °F - 30.0 °F 40% 30.11 in 10.0 mi SSW 17.3 mph 20.7 mph 0.01 in   Mostly Cloudy
4:34 PM 53.6 °F - 28.4 °F 38% 30.15 in 10.0 mi WSW 12.7 mph 28.8 mph 0.00 in   Overcast
4:53 PM 54.0 °F - 30.9 °F 41% 30.11 in 10.0 mi SW 10.4 mph 19.6 mph 0.00 in   Overcast
5:53 PM 55.9 °F - 25.0 °F 30% 30.09 in 10.0 mi West 10.4 mph 21.9 mph N/A   Scattered Clouds
6:53 PM 55.9 °F - 25.0 °F 30% 30.08 in 10.0 mi WSW 12.7 mph 19.6 mph N/A   Scattered Clouds
7:53 PM 55.0 °F - 26.1 °F 33% 30.08 in 10.0 mi West 9.2 mph 19.6 mph N/A   Scattered Clouds
8:53 PM 54.0 °F - 26.1 °F 34% 30.09 in 10.0 mi West 10.4 mph - N/A   Overcast
9:53 PM 50.0 °F - 28.0 °F 43% 30.12 in 10.0 mi WNW 6.9 mph - N/A   Partly Cloudy
10:53 PM 46.0 °F - 30.9 °F 56% 30.15 in 10.0 mi Calm Calm - N/A   Clear
11:53 PM 43.0 °F 41.3 °F 32.0 °F 65% 30.15 in 10.0 mi ESE 3.5 mph - N/A   Clear